TimeEDT,TemperatureF,Dew PointF,Humidity,Sea Level PressureIn,VisibilityMPH,Wind Direction,Wind SpeedMPH,Gust SpeedMPH,PrecipitationIn,Events,Conditions,WindDirDegrees,DateUTC
12:15 AM,63.5,61.3,93,30.01,7.0,SW,3.5,-,N/A,,Clear,220,2013-06-12 04:15:00
12:35 AM,65.1,62.1,90,30.01,10.0,Calm,Calm,-,N/A,,Clear,0,2013-06-12 04:35:00
12:55 AM,64.4,61.9,92,30.01,7.0,Calm,Calm,-,N/A,,Clear,0,2013-06-12 04:55:00
1:15 AM,64.4,61.3,90,30.01,7.0,Calm,Calm,-,N/A,,Clear,0,2013-06-12 05:15:00
1:35 AM,62.6,60.8,94,30.00,4.0,SSW,3.5,-,N/A,,Clear,210,2013-06-12 05:35:00
1:55 AM,64.6,61.3,89,30.01,10.0,West,3.5,-,N/A,,Clear,260,2013-06-12 05:55:00
2:15 AM,63.9,61.0,90,30.00,10.0,Calm,Calm,-,N/A,,Clear,0,2013-06-12 06:15:00
2:35 AM,63.1,61.2,93,29.99,4.0,SW,3.5,-,N/A,,Clear,220,2013-06-12 06:35:00
2:55 AM,63.0,60.8,93,29.99,7.0,Calm,Calm,-,N/A,,Clear,0,2013-06-12 06:55:00
3:15 AM,63.5,61.0,91,29.99,7.0,Calm,Calm,-,N/A,,Clear,0,2013-06-12 07:15:00
3:35 AM,63.9,60.8,90,29.98,10.0,Calm,Calm,-,N/A,,Clear,0,2013-06-12 07:35:00
3:55 AM,62.8,60.6,93,29.99,7.0,Calm,Calm,-,N/A,,Clear,0,2013-06-12 07:55:00
4:15 AM,62.8,60.8,93,29.99,7.0,Calm,Calm,-,N/A,,Clear,0,2013-06-12 08:15:00
4:35 AM,62.4,60.8,94,29.99,4.0,Calm,Calm,-,N/A,,Clear,0,2013-06-12 08:35:00
4:55 AM,63.5,61.0,91,29.99,10.0,Calm,Calm,-,N/A,,Clear,0,2013-06-12 08:55:00
5:15 AM,63.1,61.2,93,30.00,7.0,Calm,Calm,-,N/A,,Clear,0,2013-06-12 09:15:00
5:35 AM,63.0,60.4,91,30.00,10.0,Calm,Calm,-,N/A,,Clear,0,2013-06-12 09:35:00
5:55 AM,62.1,60.1,93,30.00,5.0,Calm,Calm,-,N/A,,Clear,0,2013-06-12 09:55:00
6:15 AM,62.2,60.1,93,30.00,7.0,Calm,Calm,-,N/A,,Clear,0,2013-06-12 10:15:00
6:35 AM,61.9,59.9,93,30.01,5.0,Calm,Calm,-,N/A,,Clear,0,2013-06-12 10:35:00
6:55 AM,62.8,61.0,94,30.01,4.0,Calm,Calm,-,N/A,,Clear,0,2013-06-12 10:55:00
7:15 AM,64.9,62.1,90,30.01,7.0,Calm,Calm,-,N/A,,Clear,0,2013-06-12 11:15:00
7:35 AM,66.4,63.0,89,30.02,10.0,Calm,Calm,-,N/A,,Clear,0,2013-06-12 11:35:00
7:55 AM,68.0,62.8,83,30.02,10.0,Calm,Calm,-,N/A,,Clear,0,2013-06-12 11:55:00
8:15 AM,70.0,63.7,80,30.03,10.0,Calm,Calm,-,N/A,,Clear,0,2013-06-12 12:15:00
8:35 AM,72.1,65.1,78,30.03,10.0,Calm,Calm,-,N/A,,Clear,0,2013-06-12 12:35:00
8:55 AM,72.7,65.7,79,30.03,10.0,SW,3.5,-,N/A,,Clear,220,2013-06-12 12:55:00
9:15 AM,72.9,64.2,74,30.02,10.0,SW,3.5,-,N/A,,Clear,230,2013-06-12 13:15:00
9:35 AM,73.4,64.4,73,30.02,10.0,WSW,3.5,-,N/A,,Clear,250,2013-06-12 13:35:00
9:55 AM,74.1,66.0,76,30.02,10.0,Calm,Calm,-,N/A,,Clear,0,2013-06-12 13:55:00
10:15 AM,76.3,67.3,74,30.02,10.0,South,3.5,-,N/A,,Clear,190,2013-06-12 14:15:00
10:35 AM,79.0,68.7,71,30.01,10.0,SW,5.8,-,N/A,,Clear,220,2013-06-12 14:35:00
10:55 AM,79.7,67.8,67,30.01,10.0,SSW,4.6,-,N/A,,Clear,210,2013-06-12 14:55:00
11:15 AM,81.5,67.8,63,30.02,10.0,SW,6.9,-,N/A,,Clear,220,2013-06-12 15:15:00
11:35 AM,83.1,69.1,62,30.01,10.0,South,5.8,-,N/A,,Clear,190,2013-06-12 15:35:00
11:55 AM,84.2,69.1,60,30.01,10.0,SW,5.8,-,N/A,,Clear,220,2013-06-12 15:55:00
12:15 PM,84.4,68.0,58,30.00,10.0,South,6.9,-,N/A,,Clear,190,2013-06-12 16:15:00
12:35 PM,85.8,69.6,58,29.99,10.0,SW,5.8,-,N/A,,Clear,230,2013-06-12 16:35:00
12:55 PM,86.0,70.0,59,29.99,10.0,WSW,8.1,-,N/A,,Clear,250,2013-06-12 16:55:00
1:15 PM,86.7,70.3,58,29.99,10.0,WSW,8.1,-,N/A,,Clear,240,2013-06-12 17:15:00
1:35 PM,87.1,70.7,58,29.98,10.0,SSW,6.9,-,N/A,,Clear,210,2013-06-12 17:35:00
1:55 PM,88.0,71.2,57,29.98,10.0,SW,8.1,-,N/A,,Clear,220,2013-06-12 17:55:00
2:15 PM,87.1,70.7,58,29.99,10.0,SW,8.1,-,N/A,,Clear,220,2013-06-12 18:15:00
2:35 PM,88.2,72.3,59,29.98,10.0,West,6.9,-,N/A,,Clear,260,2013-06-12 18:35:00
2:55 PM,88.7,72.7,59,29.98,10.0,WSW,8.1,-,N/A,,Scattered Clouds,240,2013-06-12 18:55:00
3:15 PM,89.4,72.0,56,29.97,10.0,WSW,8.1,-,N/A,,Scattered Clouds,250,2013-06-12 19:15:00
3:35 PM,89.8,72.9,57,29.97,10.0,WSW,9.2,-,N/A,,Clear,250,2013-06-12 19:35:00
3:55 PM,88.9,72.9,59,29.96,10.0,SW,10.4,-,N/A,,Clear,220,2013-06-12 19:55:00
4:15 PM,88.0,72.5,60,29.95,10.0,WSW,6.9,-,N/A,,Clear,240,2013-06-12 20:15:00
4:35 PM,87.8,72.5,60,29.94,10.0,SW,5.8,-,N/A,,Scattered Clouds,230,2013-06-12 20:35:00
4:55 PM,87.4,71.4,59,29.94,10.0,SW,6.9,-,N/A,,Scattered Clouds,220,2013-06-12 20:55:00
5:15 PM,87.8,71.6,58,29.94,10.0,SW,6.9,-,N/A,,Clear,230,2013-06-12 21:15:00
5:35 PM,87.3,70.7,58,29.93,10.0,SSW,6.9,-,N/A,,Clear,210,2013-06-12 21:35:00
5:55 PM,87.3,71.4,59,29.93,10.0,SSW,4.6,-,N/A,,Clear,210,2013-06-12 21:55:00
6:15 PM,87.8,71.1,57,29.93,10.0,SW,6.9,-,N/A,,Clear,220,2013-06-12 22:15:00
6:35 PM,87.1,71.4,59,29.93,10.0,SW,6.9,-,N/A,,Clear,220,2013-06-12 22:35:00
6:55 PM,86.2,71.6,62,29.93,10.0,SSW,6.9,-,N/A,,Clear,210,2013-06-12 22:55:00
7:15 PM,84.7,71.8,65,29.93,10.0,SSW,4.6,-,N/A,,Clear,200,2013-06-12 23:15:00
7:35 PM,83.8,72.7,69,29.93,10.0,SSW,5.8,-,N/A,,Scattered Clouds,210,2013-06-12 23:35:00
7:55 PM,83.5,71.6,67,29.93,10.0,SSW,6.9,-,N/A,,Clear,210,2013-06-12 23:55:00
8:15 PM,82.6,71.2,68,29.94,10.0,SW,5.8,-,N/A,,Clear,220,2013-06-13 00:15:00
8:35 PM,81.9,70.7,69,29.94,10.0,SSW,6.9,-,N/A,,Clear,210,2013-06-13 00:35:00
8:55 PM,81.0,70.2,70,29.93,10.0,SSW,6.9,-,N/A,,Clear,210,2013-06-13 00:55:00
9:15 PM,80.4,69.8,70,29.93,10.0,SW,5.8,-,N/A,,Clear,220,2013-06-13 01:15:00
9:35 PM,79.7,69.8,72,29.93,10.0,SW,5.8,-,N/A,,Clear,220,2013-06-13 01:35:00
9:55 PM,79.2,69.8,73,29.93,10.0,SSW,4.6,-,N/A,,Clear,210,2013-06-13 01:55:00
10:15 PM,79.2,69.8,73,29.93,10.0,SW,4.6,-,N/A,,Clear,220,2013-06-13 02:15:00
10:35 PM,79.0,70.0,74,29.93,10.0,SSW,4.6,-,N/A,,Clear,210,2013-06-13 02:35:00
10:55 PM,78.4,70.3,76,29.92,10.0,SSW,6.9,-,N/A,,Clear,210,2013-06-13 02:55:00
11:15 PM,77.9,70.5,78,29.92,10.0,SSW,4.6,-,N/A,,Clear,210,2013-06-13 03:15:00
11:35 PM,77.9,70.7,78,29.92,10.0,SW,3.5,-,N/A,,Clear,230,2013-06-13 03:35:00
11:55 PM,77.2,70.7,80,29.91,10.0,SW,4.6,-,N/A,,Clear,230,2013-06-13 03:55:00